Wind_Speed
33 32 29 28 22 15 9 13 16 19 24 29 32 32 33 31 28 25 23 19 26 17 20 21 12 10 15 8 10 5 6 6 2 1 2 2 6 9 12 11 11 9 10
37 39 35 33 33 22 13 6 12 14 15 19 25 26 27 29 25 21 24 23 25 19 17 17 11 16 15 8 7 4 6 7 3 3 3 3 7 11 14 13 11 11 11
36 39 43 43 36 34 20 10 3 10 12 15 18 21 23 23 24 23 26 29 25 24 21 16 16 18 13 11 6 4 9 8 8 6 4 5 10 14 16 16 11 12 12
30 31 36 40 43 39 35 16 4 3 9 10 11 13 13 17 21 24 26 27 29 25 24 19 21 17 13 8 6 12 14 13 9 6 6 9 9 13 15 18 14 12 11
20 28 26 31 40 42 43 29 10 8 5 11 9 7 14 13 17 19 24 27 28 26 22 24 23 19 12 10 14 14 12 9 6 5 5 8 8 11 13 17 17 12 11
13 25 25 27 34 41 41 38 21 9 8 13 13 15 16 14 17 18 20 23 25 22 22 25 26 21 12 8 15 11 9 8 5 6 7 8 7 11 14 17 17 16 13
14 20 23 22 25 36 41 37 32 16 12 15 17 16 17 16 17 19 20 21 22 22 28 25 25 14 14 10 16 13 8 6 6 5 4 4 7 10 13 14 15 16 13
11 20 22 19 23 27 34 35 34 21 11 13 16 17 18 16 17 19 21 21 21 25 29 24 21 11 16 17 17 12 5 5 3 2 2 3 4 4 6 8 9 12 17
21 9 20 17 19 20 25 32 31 27 14 13 17 16 15 15 15 16 20 23 27 31 29 21 18 16 18 16 13 6 2 4 2 4 3 4 2 3 2 5 7 9 12
6 9 20 16 15 19 22 25 28 29 20 11 12 14 14 14 12 16 19 23 31 32 26 23 21 18 15 16 13 6 1 4 3 2 3 5 4 1 2 2 5 6 9
13 13 14 15 12 14 19 18 22 25 24 14 10 11 18 17 15 15 18 24 30 29 26 24 22 14 16 17 11 9 5 7 8 5 4 2 4 3 4 2 1 3 5
17 12 13 12 6 11 13 12 15 20 20 20 15 12 12 14 13 12 16 20 27 27 24 21 19 18 19 17 15 12 7 7 8 10 6 6 7 4 4 4 4 2 5
24 16 12 9 9 7 8 12 11 12 12 12 13 13 9 11 11 12 15 16 22 27 19 19 18 20 19 13 11 5 7 9 9 9 9 8 7 6 7 7 8 5 4
19 17 15 14 13 8 3 7 6 9 8 7 7 7 7 9 12 16 14 13 17 17 19 16 19 19 14 12 7 7 10 10 12 11 10 13 14 11 11 11 8 9 6
24 17 15 13 10 14 10 3 3 1 4 4 7 6 6 7 8 9 10 18 16 14 15 18 19 17 15 12 10 10 8 9 6 5 7 7 9 9 7 6 8 3 4
31 23 16 11 14 12 14 12 9 7 2 1 1 4 4 8 9 10 11 12 11 13 16 19 17 17 16 13 10 11 9 11 12 11 13 13 13 9 8 8 7 2 6
30 27 20 11 11 12 15 21 15 13 9 5 7 6 1 2 10 13 15 15 14 14 17 17 15 14 14 11 12 15 14 11 12 12 11 6 9 10 9 10 8 5 9
33 28 28 17 9 13 15 21 24 20 18 13 8 10 10 7 4 12 14 14 16 16 18 18 18 18 19 20 19 19 16 12 11 8 6 5 8 9 10 9 9 11 11
33 32 28 26 15 13 15 17 26 28 23 20 16 12 11 10 8 6 8 17 21 19 21 22 22 22 21 21 20 14 12 14 11 9 8 8 10 10 11 11 13 16 15
37 39 33 30 25 14 18 17 20 29 27 25 24 19 16 16 14 11 10 11 16 17 22 26 24 23 22 21 20 18 16 16 13 14 13 13 13 14 13 9 16 20 20
41 41 36 33 31 24 15 19 17 27 31 31 29 27 20 19 18 14 13 15 15 18 17 17 19 17 15 18 21 22 22 18 14 15 17 17 15 18 17 19 17 23 24
40 39 35 33 34 30 20 21 21 25 35 34 34 32 26 24 22 22 12 18 20 21 22 19 18 15 15 15 16 17 20 19 18 18 19 19 15 15 14 10 16 23 24
39 38 36 35 36 32 25 21 23 20 29 40 36 36 34 30 25 23 25 20 27 25 26 21 21 20 19 18 18 16 18 19 18 18 21 19 19 14 13 17 25 25 25
42 39 36 37 38 35 28 22 26 29 25 28 40 44 46 41 36 34 30 28 28 28 28 27 23 26 22 18 20 18 19 20 19 23 23 21 19 19 14 24 29 28 29
42 41 39 40 38 36 30 24 25 30 31 28 35 43 44 47 44 38 37 36 29 38 35 31 29 30 25 23 21 21 19 23 22 26 23 25 20 21 20 21 28 37 39
45 42 44 42 41 37 33 25 25 32 33 31 28 28 37 48 48 46 44 42 43 38 29 31 33 28 29 24 26 24 24 26 28 29 29 29 23 25 32 33 32 37 42
Wind_Direction
33 32 27 24 21 9 288 254 248 234 228 225 226 230 235 241 243 238 229 239 204 229 224 225 224 207 185 212 194 229 244 216 237 331 102 58 70 42 30 44 82 91 98
38 37 30 30 30 21 17 312 244 238 228 225 224 230 236 240 240 217 224 221 212 220 219 202 199 185 179 195 181 206 185 176 173 160 154 47 71 55 44 52 96 92 94
39 40 32 27 28 27 19 22 294 231 230 222 222 223 229 226 229 228 216 214 220 217 197 189 184 178 184 177 186 178 147 135 138 115 125 85 76 61 54 54 89 96 82
33 31 27 25 25 27 24 21 59 156 195 196 208 212 217 216 210 210 213 211 206 187 187 170 167 164 165 162 163 133 118 125 119 114 107 87 80 70 62 60 71 93 83
20 15 34 22 28 28 26 30 59 110 155 177 181 176 177 177 172 185 193 183 181 179 175 163 171 165 167 159 145 135 134 135 117 96 108 82 91 77 73 70 72 82 85
17 16 13 21 32 35 30 32 42 66 127 163 159 162 156 158 160 165 168 164 167 170 170 165 169 164 154 171 158 150 146 136 115 125 119 88 94 75 84 77 71 70 72
17 21 22 24 24 30 38 28 37 51 104 144 154 160 151 151 155 160 164 166 164 171 163 168 164 152 206 179 149 143 122 112 98 84 101 80 99 92 93 79 71 65 60
31 33 14 22 34 19 33 32 32 49 88 127 152 156 147 156 163 157 165 170 168 165 165 169 177 146 175 163 148 144 101 50 38 57 80 80 104 110 113 88 74 64 59
338 1 25 21 15 34 35 29 35 41 79 115 143 155 160 159 159 163 162 169 165 164 168 171 168 187 176 161 170 151 88 2 348 8 323 330 65 76 108 66 63 72 48
319 26 10 30 8 31 48 41 32 43 61 109 147 151 155 164 170 158 164 165 167 170 175 178 172 183 180 171 175 158 237 309 334 295 350 356 315 241 139 60 50 67 36
297 313 339 5 357 14 31 49 30 35 48 77 110 140 160 169 174 172 168 170 174 176 176 182 195 196 201 193 197 227 233 269 277 299 302 322 350 333 234 255 45 43 355
12 291 319 3 343 3 18 31 55 26 34 55 83 122 142 154 156 170 180 177 182 186 183 192 197 206 200 206 209 218 247 276 292 285 277 292 321 315 271 253 274 254 24
9 4 286 309 340 350 354 42 52 52 26 35 69 91 136 154 163 163 159 177 187 188 187 196 210 190 196 208 218 232 257 280 275 282 272 277 287 275 282 264 281 283 297
12 11 344 295 299 307 325 352 29 50 43 52 73 83 112 141 160 163 168 171 165 180 200 221 186 189 199 206 224 263 275 275 270 276 265 265 275 280 263 262 275 268 292
16 8 337 321 272 286 254 297 327 45 33 26 68 124 137 138 175 181 177 171 183 197 197 187 186 197 211 230 254 265 258 272 249 262 293 278 283 286 260 245 248 258 293
6 3 353 318 309 251 265 246 261 242 193 204 171 71 91 171 177 191 198 185 194 199 196 195 196 206 222 237 244 228 244 275 268 277 284 269 264 257 221 218 201 255 281
2 356 352 326 299 301 256 225 248 252 235 200 192 139 198 245 191 183 193 195 203 197 202 205 211 219 222 229 248 259 273 269 270 293 293 262 231 214 229 215 236 293 301
0 351 339 339 293 278 281 257 250 254 251 212 201 204 236 226 229 212 215 218 214 215 213 218 221 225 236 258 264 272 270 265 273 261 251 222 209 218 204 225 257 282 309
356 351 343 327 319 248 258 249 245 251 242 229 214 214 216 213 205 205 214 224 220 221 228 236 244 246 250 252 262 256 265 256 249 217 219 218 221 224 226 259 273 284 292
354 351 336 325 313 291 243 253 242 237 241 228 218 214 224 211 214 198 206 243 205 240 235 238 246 249 248 255 252 248 260 243 231 226 237 247 252 250 249 274 304 286 289
350 349 343 329 317 306 266 237 253 235 241 236 222 222 217 222 221 208 217 223 238 237 238 237 234 240 248 253 252 255 243 236 224 232 240 249 261 261 263 271 255 287 292
344 345 343 337 326 313 289 241 238 235 231 239 237 227 226 229 225 231 232 251 263 254 247 244 237 228 239 247 244 245 240 238 243 240 243 246 259 263 269 268 274 274 289
339 340 341 338 334 321 304 269 237 237 237 226 237 237 228 227 231 229 226 222 250 259 255 248 241 240 238 246 250 243 236 243 241 234 243 258 254 244 248 272 290 285 281
332 336 338 336 332 327 310 275 239 234 247 235 227 231 235 241 235 234 233 234 236 243 255 255 254 245 238 246 252 253 255 253 250 252 255 254 250 246 262 257 274 281 276
328 332 335 335 332 326 317 286 251 236 243 250 228 230 234 236 238 234 232 237 235 251 251 246 252 265 249 255 248 253 257 265 256 258 257 243 243 254 256 266 269 265 273
323 327 331 332 330 324 321 297 263 238 240 243 241 233 234 233 240 244 236 233 241 244 245 251 250 252 259 258 249 257 260 259 256 256 249 242 239 243 258 257 253 267 279
Height
10945 10940 10938 10934 10929 10925 10922 10922 10923 10925 10927 10932 10937 10940 10944 10948 10952 10954 10957 10961 10965 10968 10971 10975 10976 10978 10982 10984 10985 10986 10987 10987 10988 10989 10988 10987 10985 10983 10981 10978 10977 10977 10977
10945 10939 10939 10935 10930 10925 10920 10918 10918 10920 10923 10927 10932 10936 10940 10943 10947 10952 10953 10958 10962 10965 10970 10973 10975 10978 10982 10983 10985 10986 10987 10987 10989 10990 10990 10989 10987 10985 10983 10980 10980 10980 10980
10946 10940 10940 10937 10931 10925 10920 10917 10915 10917 10921 10925 10928 10933 10936 10940 10943 10947 10951 10954 10958 10964 10968 10971 10974 10979 10981 10984 10986 10986 10987 10988 10990 10990 10990 10990 10989 10987 10986 10983 10981 10981 10981
10946 10943 10941 10939 10934 10927 10921 10915 10912 10914 10918 10923 10926 10930 10934 10936 10939 10943 10947 10951 10957 10961 10966 10970 10974 10978 10981 10984 10986 10987 10988 10991 10992 10991 10991 10990 10990 10989 10987 10985 10983 10983 10982
10952 10948 10940 10939 10935 10928 10924 10916 10913 10913 10917 10922 10926 10929 10931 10934 10937 10941 10944 10949 10954 10959 10965 10969 10974 10978 10982 10985 10987 10988 10990 10992 10992 10992 10991 10990 10991 10989 10988 10986 10985 10984 10983
10955 10949 10946 10943 10936 10930 10927 10922 10918 10915 10916 10922 10925 10930 10933 10936 10939 10942 10946 10949 10953 10959 10964 10970 10974 10979 10982 10985 10987 10989 10991 10992 10992 10992 10992 10992 10991 10990 10989 10987 10987 10986 10985
10953 10950 10947 10946 10940 10935 10929 10929 10923 10919 10919 10922 10926 10931 10933 10937 10941 10942 10947 10950 10955 10959 10965 10969 10974 10978 10983 10985 10987 10989 10991 10993 10993 10994 10994 10993 10993 10992 10991 10989 10988 10988 10987
10953 10953 10952 10947 10941 10940 10936 10934 10930 10925 10924 10925 10930 10933 10936 10939 10942 10944 10947 10952 10956 10960 10966 10969 10975 10978 10981 10984 10986 10989 10991 10993 10993 10993 10994 10994 10994 10993 10992 10991 10989 10989 10988
10949 10954 10954 10949 10946 10943 10939 10939 10936 10930 10929 10929 10933 10937 10939 10941 10944 10947 10948 10952 10956 10962 10966 10970 10974 10979 10982 10984 10986 10988 10990 10992 10992 10993 10994 10994 10994 10994 10993 10992 10991 10990 10988
10951 10952 10955 10950 10950 10949 10943 10942 10942 10938 10934 10934 10936 10939 10942 10944 10947 10948 10950 10952 10957 10961 10965 10970 10974 10978 10982 10984 10986 10988 10989 10990 10991 10992 10992 10993 10993 10993 10993 10992 10991 10990 10988
10956 10954 10955 10956 10953 10952 10947 10945 10945 10943 10942 10939 10940 10941 10943 10945 10947 10949 10952 10955 10958 10962 10965 10970 10974 10977 10981 10984 10985 10987 10988 10989 10990 10991 10991 10991 10992 10991 10991 10991 10990 10989 10988
10958 10956 10956 10956 10957 10954 10951 10948 10946 10947 10946 10945 10944 10944 10946 10947 10949 10951 10954 10957 10961 10963 10966 10969 10973 10975 10979 10982 10984 10986 10987 10987 10988 10989 10989 10990 10989 10989 10989 10990 10989 10989 10988
10955 10954 10955 10956 10956 10955 10954 10950 10949 10948 10950 10950 10948 10947 10948 10949 10951 10953 10955 10958 10960 10963 10967 10969 10971 10974 10978 10980 10982 10983 10984 10985 10986 10987 10987 10987 10987 10987 10987 10987 10988 10988 10988
10962 10956 10952 10952 10952 10954 10954 10952 10950 10950 10951 10952 10952 10951 10951 10952 10952 10954 10956 10959 10963 10966 10968 10969 10971 10975 10978 10980 10980 10981 10982 10982 10982 10983 10983 10984 10984 10984 10985 10986 10987 10986 10985
10961 10957 10954 10950 10949 10949 10952 10952 10950 10951 10952 10953 10953 10952 10952 10953 10955 10956 10958 10960 10962 10965 10968 10970 10972 10975 10977 10978 10979 10980 10980 10980 10980 10981 10982 10981 10982 10982 10983 10984 10984 10985 10984
10961 10956 10951 10949 10947 10946 10948 10950 10951 10952 10952 10952 10953 10954 10953 10953 10955 10958 10959 10961 10963 10965 10967 10971 10973 10975 10976 10977 10978 10978 10979 10979 10979 10979 10978 10978 10978 10979 10980 10980 10982 10983 10982
10961 10956 10951 10947 10945 10943 10944 10947 10949 10951 10951 10951 10952 10954 10953 10955 10956 10957 10959 10959 10959 10961 10965 10970 10973 10974 10974 10974 10976 10977 10977 10977 10977 10977 10975 10974 10975 10975 10977 10978 10979 10980 10979
10958 10953 10948 10945 10942 10941 10940 10940 10942 10947 10948 10947 10948 10949 10950 10952 10954 10955 10956 10956 10956 10959 10961 10966 10970 10971 10970 10971 10972 10973 10974 10974 10975 10975 10974 10973 10973 10973 10974 10977 10978 10977 10977
10956 10951 10946 10941 10939 10936 10935 10934 10936 10939 10942 10944 10945 10946 10948 10951 10952 10951 10953 10951 10953 10954 10958 10963 10966 10967 10967 10967 10968 10969 10970 10972 10972 10974 10973 10972 10973 10974 10974 10976 10976 10975 10974
10953 10948 10941 10936 10932 10931 10929 10927 10927 10931 10935 10938 10939 10942 10945 10948 10949 10948 10950 10946 10948 10949 10954 10958 10963 10964 10963 10963 10964 10966 10967 10967 10969 10971 10970 10970 10971 10972 10972 10972 10973 10972 10971
10947 10944 10938 10931 10927 10925 10921 10920 10920 10923 10927 10930 10934 10937 10940 10943 10946 10947 10946 10947 10947 10950 10952 10955 10958 10960 10959 10959 10960 10960 10961 10963 10965 10966 10966 10967 10967 10967 10967 10971 10971 10968 10968
10940 10938 10933 10927 10922 10918 10916 10915 10914 10916 10920 10924 10926 10930 10933 10937 10940 10942 10942 10944 10948 10949 10950 10953 10955 10956 10955 10954 10954 10955 10957 10959 10961 10961 10960 10962 10963 10963 10964 10965 10966 10964 10962
10936 10932 10928 10923 10918 10914 10910 10909 10908 10910 10912 10917 10921 10923 10926 10930 10933 10936 10938 10941 10944 10945 10946 10949 10950 10951 10950 10950 10950 10952 10953 10955 10956 10957 10957 10957 10958 10959 10960 10961 10961 10959 10957
10930 10927 10923 10919 10913 10908 10905 10903 10903 10903 10905 10907 10911 10914 10918 10922 10925 10930 10933 10934 10934 10935 10939 10942 10944 10945 10944 10946 10947 10948 10949 10950 10951 10952 10952 10952 10953 10954 10951 10953 10953 10951 10950
10923 10920 10917 10913 10908 10902 10899 10897 10895 10896 10898 10900 10902 10905 10908 10912 10916 10920 10923 10926 10928 10929 10931 10934 10936 10939 10940 10941 10941 10943 10945 10945 10945 10946 10947 10947 10947 10947 10948 10948 10947 10944 10943
10915 10913 10910 10906 10901 10897 10893 10889 10888 10888 10890 10892 10895 10897 10900 10903 10906 10910 10914 10917 10918 10920 10924 10927 10929 10931 10934 10935 10935 10938 10940 10940 10941 10940 10941 10942 10943 10941 10943 10942 10940 10939 10938